Location: G�migny
(47.9646°N, 1.6950°E)
Time: 05:53:40
(UTC+00:00)

STARLINK-69 - Pass Details

Date: 23 October 2019
Orbit: 548 x 551 km, 53.0° (Epoch: 11 November)

Event Time Altitude Azimuth Distance (km) Brightness Sun altitude
Rises 18:33:21 0° 292° (WNW) 2,720 8.5 -17.8°
Reaches altitude 10° 18:35:38 10° 298° (WNW) 1,825 7.3 -18.2°
Maximum altitude 18:39:41 50° 14° (NNE) 709 4.0 -18.9°
Enters shadow 18:40:33 42° 54° (NE) 798 4.0 -19.0°
